Main page
Satellite images Climate Cyclones Lightning AirportsFAQ Languages Contact Newsletter About
Weather : Europe Africa North America South America Asia Australia-Oceania Others

5372, Bangkok, Don Mueang International Airport

48456

latitude: , longitude: Thailand, elevation: 13-54-45N m


METAR: VTBD 221030Z 33004KT 300V020 9999 VCSH FEW020CB SCT040 BKN100 30/25 Q1008 NOSIG